Location: Unspecified
(0.0000°N, 0.0000°E)
Time: 17:38:14
(UTC+01:00)

Palapa 6 Rocket - Visible Passes

Search period start: 20 January 2018 00:00
Search period end: 30 January 2018 00:00
Orbit: 485 x 1219 km, 22.7° (Epoch: 19 January)

Date Brightness Start Highest point End Pass type
(mag) Time Alt. Az. Time Alt. Az. Time Alt. Az.
20 Jan 5.7 04:51:21 11° SSE 04:51:21 11° SSE 04:51:40 10° SSE visible
23 Jan 6.0 20:35:30 10° N 20:36:09 10° N 20:36:45 10° N visible
24 Jan 5.9 20:19:30 10° NNW 20:21:52 12° N 20:23:31 11° NNE visible
25 Jan 5.8 20:04:12 10° NNW 20:07:32 13° N 20:10:20 11° NNE visible
26 Jan 5.8 19:49:05 10° NNW 19:53:12 15° N 19:57:01 10° NE visible
26 Jan 6.0 21:37:27 10° NW 21:39:08 16° NNW 21:39:08 16° NNW visible
27 Jan 5.8 19:34:03 10° NNW 19:38:49 17° NNE 19:43:14 10° NE visible
27 Jan 5.5 21:22:32 10° NW 21:26:06 25° NNW 21:26:06 25° NNW visible
28 Jan 4.9 21:07:38 10° NW 21:13:07 36° N 21:13:07 36° N visible
29 Jan 4.4 20:52:46 10° NW 20:59:59 46° NNE 21:00:13 46° NNE visible
